Time,TemperatureF,DewpointF,PressureIn,WindDirection,WindDirectionDegrees,WindSpeedMPH,WindSpeedGustMPH,Humidity,HourlyPrecipIn,Conditions,Clouds,dailyrainin,SoftwareType,DateUTC
2013-09-06 00:12:00,68.7,64.0,30.16,North,360,0.0,-999.0,86,-99.99,,,0.00,weatherlink.com 1.10,2013-09-06 05:12:00,
2013-09-06 00:27:00,67.8,64.0,30.16,North,360,0.0,-999.0,87,-99.99,,,0.00,weatherlink.com 1.10,2013-09-06 05:27:00,
2013-09-06 00:42:00,66.9,64.0,30.16,North,360,0.0,-999.0,89,-99.99,,,0.00,weatherlink.com 1.10,2013-09-06 05:42:00,
2013-09-06 00:57:00,66.4,64.0,30.16,North,360,0.0,-999.0,90,-99.99,,,0.00,weatherlink.com 1.10,2013-09-06 05:57:00,
2013-09-06 01:13:00,67.0,64.0,30.16,North,360,0.0,-999.0,89,-99.99,,,0.00,weatherlink.com 1.10,2013-09-06 06:13:00,
2013-09-06 01:28:00,67.5,64.0,30.16,North,360,0.0,-999.0,89,-99.99,,,0.00,weatherlink.com 1.10,2013-09-06 06:28:00,
2013-09-06 01:43:00,67.1,64.0,30.16,North,360,0.0,-999.0,89,-99.99,,,0.00,weatherlink.com 1.10,2013-09-06 06:43:00,
2013-09-06 01:58:00,66.8,64.0,30.15,North,360,0.0,-999.0,89,-99.99,,,0.00,weatherlink.com 1.10,2013-09-06 06:58:00,
2013-09-06 02:13:00,66.4,64.0,30.15,North,360,0.0,-999.0,90,-99.99,,,0.00,weatherlink.com 1.10,2013-09-06 07:13:00,
2013-09-06 02:28:00,65.2,63.0,30.15,North,360,0.0,-999.0,91,-99.99,,,0.00,weatherlink.com 1.10,2013-09-06 07:28:00,
2013-09-06 02:43:00,64.9,62.0,30.16,North,360,0.0,-999.0,91,-99.99,,,0.00,weatherlink.com 1.10,2013-09-06 07:43:00,
2013-09-06 02:58:00,65.2,63.0,30.15,North,360,0.0,-999.0,92,-99.99,,,0.00,weatherlink.com 1.10,2013-09-06 07:58:00,
2013-09-06 03:13:00,65.6,63.0,30.15,North,360,0.0,-999.0,91,-99.99,,,0.00,weatherlink.com 1.10,2013-09-06 08:13:00,
2013-09-06 03:28:00,66.5,64.0,30.15,North,360,1.0,-999.0,91,-99.99,,,0.00,weatherlink.com 1.10,2013-09-06 08:28:00,
2013-09-06 03:43:00,66.6,64.0,30.14,NNW,340,2.0,-999.0,92,-99.99,,,0.00,weatherlink.com 1.10,2013-09-06 08:43:00,
2013-09-06 03:58:00,66.8,65.0,30.15,NNW,346,0.0,-999.0,92,-99.99,,,0.00,weatherlink.com 1.10,2013-09-06 08:58:00,
2013-09-06 04:13:00,66.9,64.0,30.15,NNW,346,0.0,-999.0,91,-99.99,,,0.00,weatherlink.com 1.10,2013-09-06 09:13:00,
2013-09-06 04:28:00,66.8,64.0,30.15,NNW,346,0.0,-999.0,91,-99.99,,,0.00,weatherlink.com 1.10,2013-09-06 09:28:00,
2013-09-06 04:43:00,66.6,64.0,30.15,NNW,345,0.0,-999.0,91,-99.99,,,0.00,weatherlink.com 1.10,2013-09-06 09:43:00,
2013-09-06 04:58:00,66.4,64.0,30.15,NW,309,0.0,-999.0,92,-99.99,,,0.00,weatherlink.com 1.10,2013-09-06 09:58:00,
2013-09-06 05:13:00,66.4,64.0,30.15,NW,309,0.0,-999.0,92,-99.99,,,0.00,weatherlink.com 1.10,2013-09-06 10:13:00,
2013-09-06 05:28:00,66.1,64.0,30.16,NW,309,0.0,-999.0,91,-99.99,,,0.00,weatherlink.com 1.10,2013-09-06 10:28:00,
2013-09-06 05:43:00,65.8,64.0,30.16,NW,309,0.0,-999.0,92,-99.99,,,0.00,weatherlink.com 1.10,2013-09-06 10:43:00,
2013-09-06 05:58:00,65.5,63.0,30.17,NW,309,0.0,-999.0,92,-99.99,,,0.00,weatherlink.com 1.10,2013-09-06 10:58:00,
2013-09-06 06:13:00,65.5,63.0,30.17,NW,309,0.0,-999.0,92,-99.99,,,0.00,weatherlink.com 1.10,2013-09-06 11:13:00,
2013-09-06 06:28:00,65.4,63.0,30.17,NW,309,0.0,-999.0,92,-99.99,,,0.00,weatherlink.com 1.10,2013-09-06 11:28:00,
2013-09-06 06:43:00,65.2,63.0,30.17,NW,313,0.0,-999.0,92,-99.99,,,0.00,weatherlink.com 1.10,2013-09-06 11:43:00,
2013-09-06 06:58:00,65.3,63.0,30.18,NW,313,0.0,-999.0,92,-99.99,,,0.00,weatherlink.com 1.10,2013-09-06 11:58:00,
2013-09-06 07:13:00,65.6,63.0,30.18,NNW,329,0.0,-999.0,92,-99.99,,,0.00,weatherlink.com 1.10,2013-09-06 12:13:00,
2013-09-06 07:28:00,66.1,64.0,30.18,NNW,329,1.0,-999.0,92,-99.99,,,0.00,weatherlink.com 1.10,2013-09-06 12:28:00,
2013-09-06 07:43:00,67.0,64.0,30.18,North,5,0.0,-999.0,91,-99.99,,,0.00,weatherlink.com 1.10,2013-09-06 12:43:00,
2013-09-06 07:58:00,67.7,65.0,30.18,North,360,0.0,-999.0,90,-99.99,,,0.00,weatherlink.com 1.10,2013-09-06 12:58:00,
2013-09-06 08:13:00,68.7,65.0,30.18,North,5,4.0,-999.0,89,-99.99,,,0.00,weatherlink.com 1.10,2013-09-06 13:13:00,
2013-09-06 08:28:00,69.6,66.0,30.18,NE,45,4.0,-999.0,88,-99.99,,,0.00,weatherlink.com 1.10,2013-09-06 13:28:00,
2013-09-06 08:43:00,70.9,67.0,30.18,NE,35,3.0,-999.0,87,-99.99,,,0.00,weatherlink.com 1.10,2013-09-06 13:43:00,
2013-09-06 08:58:00,72.0,67.0,30.18,NE,56,5.0,-999.0,85,-99.99,,,0.00,weatherlink.com 1.10,2013-09-06 13:58:00,
2013-09-06 09:13:00,72.6,66.0,30.18,North,360,3.0,-999.0,80,-99.99,,,0.00,weatherlink.com 1.10,2013-09-06 14:13:00,
2013-09-06 09:28:00,73.8,67.0,30.19,East,84,4.0,-999.0,78,-99.99,,,0.00,weatherlink.com 1.10,2013-09-06 14:28:00,
2013-09-06 09:43:00,74.8,67.0,30.19,East,80,0.0,-999.0,76,-99.99,,,0.00,weatherlink.com 1.10,2013-09-06 14:43:00,
2013-09-06 09:58:00,75.6,67.0,30.20,East,82,3.0,-999.0,75,-99.99,,,0.00,weatherlink.com 1.10,2013-09-06 14:58:00,
2013-09-06 10:13:00,76.2,67.0,30.20,ESE,122,6.0,-999.0,72,-99.99,,,0.00,weatherlink.com 1.10,2013-09-06 15:13:00,
2013-09-06 10:28:00,76.9,67.0,30.19,ESE,103,2.0,-999.0,72,-99.99,,,0.00,weatherlink.com 1.10,2013-09-06 15:28:00,
2013-09-06 10:43:00,77.5,67.0,30.19,ESE,104,5.0,-999.0,71,-99.99,,,0.00,weatherlink.com 1.10,2013-09-06 15:43:00,
2013-09-06 10:58:00,79.0,68.0,30.19,SE,142,0.0,-999.0,68,-99.99,,,0.00,weatherlink.com 1.10,2013-09-06 15:58:00,
2013-09-06 11:13:00,80.1,68.0,30.19,ESE,111,0.0,-999.0,66,-99.99,,,0.00,weatherlink.com 1.10,2013-09-06 16:13:00,
2013-09-06 11:29:00,80.6,68.0,30.19,SE,146,0.0,-999.0,66,-99.99,,,0.00,weatherlink.com 1.10,2013-09-06 16:29:00,
2013-09-06 11:44:00,80.7,69.0,30.18,SE,134,5.0,-999.0,67,-99.99,,,0.00,weatherlink.com 1.10,2013-09-06 16:44:00,
2013-09-06 11:59:00,82.0,70.0,30.18,South,170,0.0,-999.0,66,-99.99,,,0.00,weatherlink.com 1.10,2013-09-06 16:59:00,
2013-09-06 12:14:00,82.0,69.0,30.17,SE,139,1.0,-999.0,65,-99.99,,,0.00,weatherlink.com 1.10,2013-09-06 17:14:00,
2013-09-06 12:29:00,83.1,70.0,30.17,East,88,1.0,-999.0,64,-99.99,,,0.00,weatherlink.com 1.10,2013-09-06 17:29:00,
2013-09-06 12:44:00,82.7,70.0,30.16,SSE,151,8.0,-999.0,65,-99.99,,,0.00,weatherlink.com 1.10,2013-09-06 17:44:00,
2013-09-06 12:59:00,82.7,69.0,30.16,SE,132,0.0,-999.0,64,-99.99,,,0.00,weatherlink.com 1.10,2013-09-06 17:59:00,
2013-09-06 13:14:00,82.5,69.0,30.16,ESE,113,5.0,-999.0,64,-99.99,,,0.00,weatherlink.com 1.10,2013-09-06 18:14:00,
2013-09-06 13:29:00,83.1,69.0,30.15,SE,133,0.0,-999.0,62,-99.99,,,0.00,weatherlink.com 1.10,2013-09-06 18:29:00,
2013-09-06 13:44:00,84.8,69.0,30.15,SSE,148,6.0,-999.0,59,-99.99,,,0.00,weatherlink.com 1.10,2013-09-06 18:44:00,
2013-09-06 13:59:00,84.1,69.0,30.14,SSW,213,0.0,-999.0,61,-99.99,,,0.00,weatherlink.com 1.10,2013-09-06 18:59:00,
2013-09-06 14:14:00,83.5,69.0,30.14,SW,227,1.0,-999.0,61,-99.99,,,0.00,weatherlink.com 1.10,2013-09-06 19:14:00,
2013-09-06 14:29:00,84.3,69.0,30.13,SE,134,0.0,-999.0,60,-99.99,,,0.00,weatherlink.com 1.10,2013-09-06 19:29:00,
2013-09-06 14:44:00,84.1,68.0,30.13,SE,134,0.0,-999.0,59,-99.99,,,0.00,weatherlink.com 1.10,2013-09-06 19:44:00,
2013-09-06 14:59:00,85.1,68.0,30.12,SE,138,0.0,-999.0,57,-99.99,,,0.00,weatherlink.com 1.10,2013-09-06 19:59:00,
2013-09-06 15:14:00,86.1,69.0,30.12,South,175,4.0,-999.0,57,-99.99,,,0.00,weatherlink.com 1.10,2013-09-06 20:14:00,
2013-09-06 15:29:00,85.7,68.0,30.11,SE,146,0.0,-999.0,55,-99.99,,,0.00,weatherlink.com 1.10,2013-09-06 20:29:00,
2013-09-06 15:44:00,85.6,68.0,30.11,SSE,165,0.0,-999.0,55,-99.99,,,0.00,weatherlink.com 1.10,2013-09-06 20:44:00,
2013-09-06 15:59:00,86.4,67.0,30.10,South,172,0.0,-999.0,53,-99.99,,,0.00,weatherlink.com 1.10,2013-09-06 20:59:00,
2013-09-06 16:14:00,86.5,69.0,30.10,SE,141,1.0,-999.0,56,-99.99,,,0.00,weatherlink.com 1.10,2013-09-06 21:14:00,
2013-09-06 16:29:00,85.9,69.0,30.10,SSE,149,0.0,-999.0,57,-99.99,,,0.00,weatherlink.com 1.10,2013-09-06 21:29:00,
2013-09-06 16:44:00,86.5,68.0,30.09,SSE,149,0.0,-999.0,54,-99.99,,,0.00,weatherlink.com 1.10,2013-09-06 21:44:00,
2013-09-06 17:00:00,85.9,69.0,30.09,SSE,149,0.0,-999.0,57,-99.99,,,0.00,weatherlink.com 1.10,2013-09-06 22:00:00,
2013-09-06 17:14:00,85.8,68.0,30.09,SSE,149,0.0,-999.0,56,-99.99,,,0.00,weatherlink.com 1.10,2013-09-06 22:14:00,
2013-09-06 17:30:00,85.3,71.0,30.09,SSE,149,0.0,-999.0,62,-99.99,,,0.00,weatherlink.com 1.10,2013-09-06 22:30:00,
2013-09-06 17:44:00,84.0,71.0,30.09,South,188,0.0,-999.0,66,-99.99,,,0.00,weatherlink.com 1.10,2013-09-06 22:44:00,
2013-09-06 17:59:00,84.0,72.0,30.09,NW,304,0.0,-999.0,67,-99.99,,,0.00,weatherlink.com 1.10,2013-09-06 22:59:00,
2013-09-06 18:14:00,82.5,71.0,30.08,NW,305,0.0,-999.0,69,-99.99,,,0.00,weatherlink.com 1.10,2013-09-06 23:14:00,
2013-09-06 18:29:00,81.5,71.0,30.09,NW,305,0.0,-999.0,70,-99.99,,,0.00,weatherlink.com 1.10,2013-09-06 23:29:00,
2013-09-06 18:44:00,80.7,71.0,30.09,NW,305,0.0,-999.0,73,-99.99,,,0.00,weatherlink.com 1.10,2013-09-06 23:44:00,
2013-09-06 18:59:00,79.9,71.0,30.08,NW,305,0.0,-999.0,75,-99.99,,,0.00,weatherlink.com 1.10,2013-09-06 23:59:00,
2013-09-06 19:14:00,79.0,71.0,30.09,NW,305,0.0,-999.0,76,-99.99,,,0.00,weatherlink.com 1.10,2013-09-07 00:14:00,
2013-09-06 19:29:00,78.2,71.0,30.09,NW,305,0.0,-999.0,79,-99.99,,,0.00,weatherlink.com 1.10,2013-09-07 00:29:00,
2013-09-06 19:44:00,77.8,71.0,30.09,NW,305,0.0,-999.0,79,-99.99,,,0.00,weatherlink.com 1.10,2013-09-07 00:44:00,
2013-09-06 19:59:00,77.7,71.0,30.09,NW,305,0.0,-999.0,79,-99.99,,,0.00,weatherlink.com 1.10,2013-09-07 00:59:00,
2013-09-06 20:15:00,77.3,71.0,30.10,NW,305,0.0,-999.0,80,-99.99,,,0.00,weatherlink.com 1.10,2013-09-07 01:15:00,
2013-09-06 20:29:00,76.7,71.0,30.10,NW,305,0.0,-999.0,81,-99.99,,,0.00,weatherlink.com 1.10,2013-09-07 01:29:00,
2013-09-06 20:44:00,76.2,70.0,30.11,NW,305,0.0,-999.0,82,-99.99,,,0.00,weatherlink.com 1.10,2013-09-07 01:44:00,
2013-09-06 20:59:00,75.8,70.0,30.11,NW,305,0.0,-999.0,83,-99.99,,,0.00,weatherlink.com 1.10,2013-09-07 01:59:00,
2013-09-06 21:14:00,75.2,71.0,30.11,NW,305,0.0,-999.0,85,-99.99,,,0.00,weatherlink.com 1.10,2013-09-07 02:14:00,
2013-09-06 21:29:00,74.8,70.0,30.11,NW,305,0.0,-999.0,86,-99.99,,,0.00,weatherlink.com 1.10,2013-09-07 02:29:00,
2013-09-06 21:44:00,74.4,70.0,30.11,NW,305,0.0,-999.0,86,-99.99,,,0.00,weatherlink.com 1.10,2013-09-07 02:44:00,
2013-09-06 21:59:00,74.0,70.0,30.11,NW,305,0.0,-999.0,88,-99.99,,,0.00,weatherlink.com 1.10,2013-09-07 02:59:00,
2013-09-06 22:14:00,73.6,70.0,30.11,NW,305,0.0,-999.0,88,-99.99,,,0.00,weatherlink.com 1.10,2013-09-07 03:14:00,
2013-09-06 22:29:00,73.2,70.0,30.11,NW,305,0.0,-999.0,89,-99.99,,,0.00,weatherlink.com 1.10,2013-09-07 03:29:00,
2013-09-06 22:45:00,72.8,70.0,30.11,NW,305,0.0,-999.0,89,-99.99,,,0.00,weatherlink.com 1.10,2013-09-07 03:45:00,
2013-09-06 23:00:00,72.6,70.0,30.11,NW,305,0.0,-999.0,90,-99.99,,,0.00,weatherlink.com 1.10,2013-09-07 04:00:00,
2013-09-06 23:15:00,72.4,69.0,30.11,NW,305,0.0,-999.0,90,-99.99,,,0.00,weatherlink.com 1.10,2013-09-07 04:15:00,
2013-09-06 23:30:00,72.6,70.0,30.11,NW,305,0.0,-999.0,90,-99.99,,,0.00,weatherlink.com 1.10,2013-09-07 04:30:00,
2013-09-06 23:45:00,72.6,69.0,30.11,NW,305,0.0,-999.0,89,-99.99,,,0.00,weatherlink.com 1.10,2013-09-07 04:45:00,